Location: Arcizac
(43.0933°N, 0.0112°E)
Time: 22:32:06
(UTC+00:00)

CSL-04 Rocket - Pass Details

Date: 14 December 2019
Orbit: 807 x 859 km, 99.0° (Epoch: 24 January)

Event Time Altitude Azimuth Distance (km) Brightness Sun altitude
Rises 18:35:38 0° 167° (SSE) 3,308 6.8 -22.9°
Reaches altitude 10° 18:37:57 10° 168° (SSE) 2,382 6.0 -23.3°
Maximum altitude 18:43:13 82° 256° (WSW) 823 3.6 -24.2°
Drops below altitude 10° 18:48:33 10° 344° (NNW) 2,413 6.1 -25.2°
Sets 18:50:55 0° 345° (NNW) 3,355 6.9 -25.6°
